This is the latest recevied weather packets stored in our database for station/object YO3LAW-13. If no packets are shown the sender has not sent any weather packets the latest 1 day(s).
| Time | Temp. | Humidity | Pressure | Rain* | Wind** | Luminosity | Snow |
|---|---|---|---|---|---|---|---|
| 1778004947 | 18.89° C | 53% | 1003.6 hPa | 0 mm | 0 m/s | - | - |
| 1778004347 | 18.89° C | 55% | 1003.5 hPa | 0 mm | 0 m/s | - | - |
| 1778003747 | 18.89° C | 56% | 1003.3 hPa | 0 mm | 0 m/s | - | - |
| 1778003147 | 18.89° C | 54% | 1003.3 hPa | 0 mm | 0 m/s | - | - |
| 1778002547 | 19.44° C | 53% | 1003.3 hPa | 0 mm | 0 m/s | - | - |
| 1778001947 | 19.44° C | 52% | 1003.1 hPa | 0 mm | 0 m/s | - | - |
| 1778001347 | 20° C | 52% | 1003.3 hPa | 0 mm | 0 m/s | - | - |
| 1778000747 | 20° C | 51% | 1003.2 hPa | 0 mm | 0 m/s | - | - |
| 1778000147 | 20.56° C | 51% | 1003 hPa | 0 mm | 0 m/s | - | - |
| 1777999547 | 21.11° C | 50% | 1003.3 hPa | 0 mm | 0 m/s | - | - |
| 1777998947 | 21.11° C | 49% | 1002.9 hPa | 0 mm | 0 m/s | - | - |
| 1777998347 | 21.67° C | 51% | 1003.1 hPa | 0 mm | 0 m/s | - | - |
| 1777997747 | 21.67° C | 50% | 1003.1 hPa | 0 mm | 0 m/s | - | - |
| 1777997147 | 21.67° C | 48% | 1003.2 hPa | 0 mm | 0 m/s | - | - |
| 1777996547 | 22.22° C | 48% | 1003.3 hPa | 0 mm | 0 m/s | - | - |
| 1777995947 | 22.22° C | 47% | 1003.1 hPa | 0 mm | 0 m/s | - | - |
| 1777995347 | 22.78° C | 46% | 1003.3 hPa | 0 mm | 0 m/s | - | - |
| 1777994747 | 22.78° C | 44% | 1003.1 hPa | 0 mm | 0 m/s | - | - |
| 1777994147 | 23.33° C | 43% | 1003.4 hPa | 0 mm | 0 m/s | - | - |
| 1777993547 | 23.33° C | 42% | 1003.5 hPa | 0 mm | 0 m/s | - | - |
| 1777992947 | 24.44° C | 40% | 1003.7 hPa | 0 mm | 0 m/s | - | - |
| 1777992347 | 25° C | 38% | 1003.5 hPa | 0 mm | 0 m/s | - | - |
| 1777991747 | 25.56° C | 37% | 1003.7 hPa | 0 mm | 0 m/s | - | - |
| 1777991147 | 26.67° C | 36% | 1003.4 hPa | 0 mm | 0 m/s | - | - |
| 1777990547 | 26.11° C | 36% | 1003.5 hPa | 0 mm | 0.45 m/s, 323° | - | - |
* Rain latest hour (hover to see other rain measurements)
** Current wind speed in m/s (hover to see current wind gust speed)